Regional Weather Roundup
Issued by NWS

Home | Current Version | Previous Version | Graphics & Text | Print | Product List | Glossary On
Versions: 1 2 3 4 5 6 7 8 9 10 11 12 13 14 15 16 17 18 19 20 21 22 23 24 25 26 27 28 29 30 31 32 33 34 35 36 37 38 39 40 41 42 43 44 45 46 47 48 49 50
000
ASUS43 KTOP 260308
RWRKS

WEATHER ROUNDUP FOR KANSAS
NATIONAL WEATHER SERVICE GOODLAND KS
1000 PM CDT MON JUL 25 2016

NOTE:  "FAIR" INDICATES FEW OR NO CLOUDS BELOW 12,000 FEET WITH NO
SIGNIFICANT WEATHER AND/OR OBSTRUCTIONS TO VISIBILITY.

KSZ001>006-013>018-027>032-041>047-260400-
NORTHWEST KANSAS

CITY           SKY/WX    TMP DP  RH WIND       PRES   REMARKS
GOODLAND       PTCLDY    73  64  73 SE8       30.12R
HAYS           CLEAR     73  61  64 E9        30.07S
HILL CITY      CLEAR     73  66  78 E6        30.09R
RUSSELL        CLEAR     73  65  75 SE8       30.06R
$$

KSZ061>065-074>080-084>089-260400-
SOUTHWEST KANSAS

CITY           SKY/WX    TMP DP  RH WIND       PRES   REMARKS
DODGE CITY     CLEAR     74  67  78 E7        30.08R
ELKHART          N/A     74  66  76 E6          N/A
GARDEN CITY    CLEAR     73  67  81 E7        30.09R
GREAT BEND     CLEAR     75  64  69 E6        30.06S
LIBERAL        CLEAR     79  64  61 E7        30.11R
PRATT          CLEAR     73  67  80 E6        30.07R
$$

KSZ066>073-081>083-090>101-260400-
SOUTHEAST KANSAS

CITY           SKY/WX    TMP DP  RH WIND       PRES   REMARKS
CHANUTE        CLOUDY    78  73  84 NE5       30.04R
COFFEYVILLE    CLOUDY    78  73  84 N5        30.02R
HUTCHINSON     CLEAR     75  70  84 E7        30.06R
MEDICINE LODGE   N/A     77  69  76 E10       30.03R
NEWTON         PTCLDY    74  71  91 E6        30.07R
PARSONS          N/A    N/A N/A N/A MISG      30.04R
WICHITA INTL   PTCLDY    79  71  76 E9        30.04R
WICHITA JABRA  CLOUDY    76  72  87 NE7       30.05R
WICHITA MCCONL PTCLDY    78  72  80 E10       30.04S
WINFIELD       CLOUDY    79  72  79 NE10      30.03S
$$

KSZ007>012-019>026-033>040-048>060-102>105-260400-
NORTHEAST KANSAS

CITY           SKY/WX    TMP DP  RH WIND       PRES   REMARKS
CONCORDIA      CLEAR     71  66  84 SE5       30.07R
EMPORIA        CLOUDY    75  71  87 E5        30.06R
LAWRENCE       CLOUDY    75  69  81 E6        30.06R
MANHATTAN      CLEAR     75  69  81 E5        30.06R
MARYSVILLE     CLEAR     72  64  78 E3        30.08R
OLATHE IND     CLOUDY    78  68  71 E3        30.07R
OLATHE EXE     CLOUDY    77  66  68 E5        30.07R
SALINA         CLEAR     79  69  71 E8        30.05R
TOPEKA BILLARD   N/A     77  70  79 CALM      30.06R
TOPEKA FORBES  CLOUDY    79  69  71 CALM      30.06R
$$




USA.gov is the U.S. government's official web portal to all federal, state and local government web resources and services.